• In Switzerland
  • List of Countries
  • For 7 days
  • Water Temperature
  • Satellite Maps
  • Weather Map
  • Weather Widgets
  • user-avatar
    Login

    Hourly Weather Estelí

    Today, 24 November, Friday

    Time Temperature Precipitation Wind Pressure Humidity
    00:00 +19°C° 0 mm 1 mps 686 mmHg 83%
    01:00 +19°C° 0 mm 1 mps 686 mmHg 84%
    02:00 +18°C° 0 mm 2 mps 685 mmHg 85%
    03:00 +17°C° 0 mm 2 mps 685 mmHg 86%
    04:00 +17°C° 0 mm 2 mps 685 mmHg 86%
    05:00 +17°C° 0 mm 2 mps 685 mmHg 86%
    06:00 +17°C° 0 mm 2 mps 685 mmHg 87%
    07:00 +19°C° 0 mm 2 mps 686 mmHg 77%
    08:00 +23°C° 0 mm 2 mps 687 mmHg 68%
    09:00 +25°C° 0 mm 2 mps 688 mmHg 59%
    10:00 +26°C° 0 mm 2 mps 687 mmHg 55%
    11:00 +28°C° 0 mm 3 mps 687 mmHg 52%
    12:00 +29°C° 0 mm 3 mps 687 mmHg 48%
    13:00 +29°C° 0 mm 3 mps 686 mmHg 49%
    14:00 +29°C° 0 mm 3 mps 686 mmHg 50%
    15:00 +28°C° 0 mm 3 mps 685 mmHg 52%
    16:00 +26°C° 0 mm 2 mps 685 mmHg 58%
    17:00 +25°C° 0 mm 2 mps 685 mmHg 64%
    18:00 +23°C° 0 mm 2 mps 685 mmHg 71%
    19:00 +21°C° 0 mm 2 mps 686 mmHg 73%
    20:00 +20°C° 0 mm 2 mps 686 mmHg 75%
    21:00 +20°C° 0 mm 2 mps 687 mmHg 77%
    22:00 +19°C° 0 mm 2 mps 687 mmHg 80%
    23:00 +19°C° 0 mm 2 mps 687 mmHg 83%

    Tomorrow, 25 November, Saturday

    Time Temperature Precipitation Wind Pressure Humidity
    00:00 +20°C° 0 mm 1 mps 687 mmHg 85%
    01:00 +18°C° 0 mm 2 mps 686 mmHg 86%
    02:00 +18°C° 0 mm 2 mps 686 mmHg 87%
    03:00 +18°C° 0 mm 2 mps 686 mmHg 89%
    04:00 +17°C° 0 mm 2 mps 686 mmHg 88%
    05:00 +17°C° 0 mm 2 mps 686 mmHg 88%
    06:00 +17°C° 0 mm 2 mps 686 mmHg 88%
    07:00 +20°C° 0 mm 2 mps 687 mmHg 79%
    08:00 +23°C° 0 mm 2 mps 688 mmHg 70%
    09:00 +25°C° 0 mm 2 mps 689 mmHg 61%
    10:00 +27°C° 0 mm 2 mps 688 mmHg 58%
    11:00 +28°C° 0 mm 3 mps 688 mmHg 55%
    12:00 +29°C° 0 mm 3 mps 688 mmHg 51%
    13:00 +29°C° 0 mm 3 mps 687 mmHg 53%
    14:00 +29°C° 0 mm 3 mps 686 mmHg 54%
    15:00 +28°C° 0 mm 3 mps 686 mmHg 56%
    16:00 +27°C° 0 mm 2 mps 686 mmHg 62%
    17:00 +25°C° 0 mm 2 mps 686 mmHg 68%
    18:00 +23°C° 0 mm 1 mps 686 mmHg 74%
    19:00 +22°C° 0 mm 1 mps 686 mmHg 76%
    20:00 +21°C° 0 mm 2 mps 687 mmHg 78%
    21:00 +20°C° 0 mm 2 mps 687 mmHg 81%
    22:00 +20°C° 0 mm 2 mps 687 mmHg 82%
    23:00 +20°C° 0 mm 1 mps 687 mmHg 84%

    Day after tomorrow, 26 November, Sunday

    Time Temperature Precipitation Wind Pressure Humidity
    00:00 +20°C° 0 mm 1 mps 687 mmHg 86%
    01:00 +20°C° 0 mm 1 mps 687 mmHg 87%
    02:00 +18°C° 0 mm 2 mps 686 mmHg 88%
    03:00 +18°C° 0 mm 2 mps 686 mmHg 89%
    04:00 +18°C° 0 mm 2 mps 686 mmHg 89%
    05:00 +18°C° 0 mm 2 mps 686 mmHg 89%
    06:00 +18°C° 0 mm 2 mps 686 mmHg 90%
    07:00 +20°C° 0 mm 2 mps 687 mmHg 81%
    08:00 +23°C° 0 mm 2 mps 688 mmHg 72%
    09:00 +26°C° 0 mm 2 mps 689 mmHg 64%
    10:00 +27°C° 0 mm 2 mps 688 mmHg 60%
    11:00 +28°C° 0 mm 3 mps 688 mmHg 56%
    12:00 +29°C° 0 mm 3 mps 688 mmHg 52%
    13:00 +29°C° 0 mm 3 mps 687 mmHg 54%
    14:00 +29°C° 0 mm 3 mps 686 mmHg 55%
    15:00 +29°C° 0 mm 3 mps 685 mmHg 56%
    16:00 +27°C° 0 mm 2 mps 685 mmHg 63%
    17:00 +25°C° 0 mm 2 mps 686 mmHg 71%
    18:00 +23°C° 0 mm 2 mps 686 mmHg 79%
    19:00 +21°C° 0 mm 2 mps 686 mmHg 82%
    20:00 +20°C° 0 mm 2 mps 686 mmHg 84%
    21:00 +20°C° 0 mm 2 mps 687 mmHg 87%
    22:00 +19°C° 0 mm 2 mps 687 mmHg 88%
    23:00 +19°C° 0 mm 2 mps 686 mmHg 89%

    27 November, Monday

    Time Temperature Precipitation Wind Pressure Humidity
    00:00 +19°C° 0 mm 2 mps 686 mmHg 90%
    01:00 +18°C° 0 mm 2 mps 686 mmHg 90%
    02:00 +18°C° 0 mm 2 mps 686 mmHg 90%
    03:00 +18°C° 0 mm 2 mps 685 mmHg 90%
    04:00 +18°C° 0 mm 2 mps 685 mmHg 90%
    05:00 +18°C° 0 mm 2 mps 686 mmHg 89%
    06:00 +17°C° 0 mm 2 mps 686 mmHg 89%
    07:00 +19°C° 0 mm 2 mps 687 mmHg 80%
    08:00 +21°C° 0 mm 3 mps 687 mmHg 71%
    09:00 +24°C° 0 mm 3 mps 688 mmHg 62%
    10:00 +26°C° 0 mm 3 mps 688 mmHg 57%
    11:00 +27°C° 0 mm 3 mps 687 mmHg 53%
    12:00 +28°C° 0 mm 3 mps 687 mmHg 49%
    13:00 +28°C° 0 mm 3 mps 687 mmHg 50%
    14:00 +28°C° 0 mm 3 mps 686 mmHg 52%
    15:00 +28°C° 0 mm 3 mps 685 mmHg 53%
    16:00 +26°C° 0 mm 3 mps 685 mmHg 60%
    17:00 +24°C° 0 mm 2 mps 685 mmHg 67%
    18:00 +21°C° 0 mm 2 mps 685 mmHg 74%
    19:00 +20°C° 0 mm 2 mps 686 mmHg 76%
    20:00 +20°C° 0 mm 2 mps 686 mmHg 79%
    21:00 +19°C° 0 mm 2 mps 687 mmHg 81%
    22:00 +18°C° 0 mm 2 mps 687 mmHg 83%
    23:00 +18°C° 0 mm 2 mps 686 mmHg 84%

    28 November, Tuesday

    Time Temperature Precipitation Wind Pressure Humidity
    00:00 +17°C° 0 mm 2 mps 686 mmHg 86%
    01:00 +17°C° 0 mm 2 mps 686 mmHg 86%
    02:00 +17°C° 0 mm 2 mps 685 mmHg 87%
    03:00 +16°C° 0 mm 2 mps 685 mmHg 87%
    04:00 +16°C° 0 mm 2 mps 685 mmHg 87%
    05:00 +16°C° 0 mm 2 mps 685 mmHg 87%
    06:00 +16°C° 0 mm 2 mps 686 mmHg 86%
    07:00 +18°C° 0 mm 2 mps 687 mmHg 76%
    08:00 +21°C° 0 mm 2 mps 687 mmHg 67%
    09:00 +24°C° 0 mm 2 mps 688 mmHg 57%
    10:00 +26°C° 0 mm 2 mps 688 mmHg 52%
    11:00 +27°C° 0 mm 2 mps 688 mmHg 46%
    12:00 +28°C° 0 mm 3 mps 687 mmHg 41%
    13:00 +28°C° 0 mm 3 mps 687 mmHg 42%
    14:00 +28°C° 0 mm 3 mps 686 mmHg 43%
    15:00 +28°C° 0 mm 3 mps 686 mmHg 45%
    16:00 +26°C° 0 mm 2 mps 686 mmHg 51%
    17:00 +24°C° 0 mm 2 mps 686 mmHg 58%
    18:00 +21°C° 0 mm 2 mps 686 mmHg 65%
    19:00 +20°C° 0 mm 2 mps 686 mmHg 67%
    20:00 +19°C° 0 mm 2 mps 686 mmHg 70%
    21:00 +19°C° 0 mm 2 mps 687 mmHg 72%
    22:00 +19°C° 0 mm 2 mps 687 mmHg 75%
    23:00 +18°C° 0 mm 2 mps 686 mmHg 78%

    29 November, Wednesday

    Time Temperature Precipitation Wind Pressure Humidity
    00:00 +18°C° 0 mm 2 mps 686 mmHg 81%
    01:00 +18°C° 0 mm 2 mps 686 mmHg 83%
    02:00 +18°C° 0 mm 2 mps 686 mmHg 85%
    03:00 +17°C° 0 mm 2 mps 685 mmHg 87%
    04:00 +17°C° 0 mm 2 mps 686 mmHg 87%
    05:00 +17°C° 0 mm 2 mps 686 mmHg 88%
    06:00 +17°C° 0 mm 2 mps 686 mmHg 88%
    07:00 +19°C° 0 mm 2 mps 687 mmHg 81%
    08:00 +23°C° 0 mm 2 mps 688 mmHg 73%
    09:00 +25°C° 0 mm 3 mps 688 mmHg 65%
    10:00 +26°C° 0 mm 3 mps 688 mmHg 62%
    11:00 +27°C° 0 mm 3 mps 688 mmHg 59%
    12:00 +28°C° 0 mm 3 mps 687 mmHg 57%
    13:00 +28°C° 0.1 mm 3 mps 687 mmHg 57%
    14:00 +28°C° 0.1 mm 3 mps 686 mmHg 58%
    15:00 +28°C° 0.1 mm 3 mps 686 mmHg 59%
    16:00 +26°C° 0 mm 2 mps 686 mmHg 66%
    17:00 +25°C° 0 mm 2 mps 686 mmHg 73%
    18:00 +23°C° 0 mm 2 mps 686 mmHg 80%
    19:00 +21°C° 0 mm 2 mps 686 mmHg 82%
    20:00 +21°C° 0 mm 2 mps 687 mmHg 85%
    21:00 +20°C° 0 mm 2 mps 687 mmHg 87%
    22:00 +20°C° 0 mm 2 mps 687 mmHg 88%
    23:00 +20°C° 0 mm 2 mps 686 mmHg 88%
    Show more